Location: Champs
(48.8539°N, 2.6040°E)
Time: 01:25:46
(UTC+00:00)

CSL-04 Deb - Visible Passes

Search period start: 15 August 2022 00:00
Search period end: 25 August 2022 00:00
Orbit: 654 x 776 km, 98.5° (Epoch: 14 August)

Date Brightness Start Highest point End Pass type
(mag) Time Alt. Az. Time Alt. Az. Time Alt. Az.
15 Aug ? 20:42:24 10° WSW 20:44:24 13° W 20:46:25 10° WNW visible
16 Aug ? 19:48:25 10° SSW 19:52:35 37° W 19:56:47 10° NNW visible
17 Aug ? 20:37:16 10° WSW 20:39:40 14° W 20:42:06 10° NW visible
18 Aug ? 19:43:38 10° S 19:47:53 41° W 19:52:11 10° NNW visible
19 Aug ? 20:32:11 10° SW 20:34:55 16° W 20:37:42 10° NW visible
20 Aug ? 19:38:51 10° S 19:43:10 46° W 19:47:33 10° NNW visible
21 Aug ? 20:27:10 10° SW 20:30:10 18° W 20:33:14 10° NW visible
22 Aug ? 19:34:04 10° S 19:38:26 51° W 19:42:54 10° NNW visible
23 Aug ? 20:22:09 10° SW 20:25:24 19° W 20:28:44 10° NW visible
24 Aug ? 19:29:16 10° S 19:33:42 57° WSW 19:38:14 10° NNW visible
